Year,Month,Day,Hour,Minute,Value (Times are PST for barometer in hPa)
2018,11,25,00,00,1000.34
2018,11,25,00,01,1000.27
2018,11,25,00,02,1000.31
2018,11,25,00,03,1000.34
2018,11,25,00,04,1000.37
2018,11,25,00,05,1000.37
2018,11,25,00,06,1000.34
2018,11,25,00,07,1000.37
2018,11,25,00,08,1000.44
2018,11,25,00,09,1000.41
2018,11,25,00,10,1000.37
2018,11,25,00,11,1000.37
2018,11,25,00,12,1000.44
2018,11,25,00,13,1000.34
2018,11,25,00,14,1000.34
2018,11,25,00,15,1000.24
2018,11,25,00,16,1000.24
2018,11,25,00,17,1000.27
2018,11,25,00,18,1000.24
2018,11,25,00,19,1000.20
2018,11,25,00,20,1000.24
2018,11,25,00,21,1000.24
2018,11,25,00,22,1000.20
2018,11,25,00,23,1000.20
2018,11,25,00,24,1000.27
2018,11,25,00,25,1000.17
2018,11,25,00,26,1000.17
2018,11,25,00,27,1000.20
2018,11,25,00,28,1000.24
2018,11,25,00,29,1000.27
2018,11,25,00,30,1000.34
2018,11,25,00,31,1000.34
2018,11,25,00,32,1000.37
2018,11,25,00,33,1000.34
2018,11,25,00,34,1000.34
2018,11,25,00,35,1000.24
2018,11,25,00,36,1000.20
2018,11,25,00,37,1000.17
2018,11,25,00,38,1000.24
2018,11,25,00,39,1000.20
2018,11,25,00,40,1000.13
2018,11,25,00,41,999.97
2018,11,25,00,42,999.93
2018,11,25,00,43,999.90
2018,11,25,00,44,999.90
2018,11,25,00,45,999.87
2018,11,25,00,46,999.83
2018,11,25,00,47,999.83
2018,11,25,00,48,999.80
2018,11,25,00,49,999.76
2018,11,25,00,50,999.76
2018,11,25,00,51,999.76
2018,11,25,00,52,999.76
2018,11,25,00,53,999.76
2018,11,25,00,54,999.73
2018,11,25,00,55,999.73
2018,11,25,00,56,999.73
2018,11,25,00,57,999.70
2018,11,25,00,58,999.70
2018,11,25,00,59,999.70
2018,11,25,01,00,999.70
2018,11,25,01,01,999.66
2018,11,25,01,02,999.70
2018,11,25,01,03,999.73
2018,11,25,01,04,999.76
2018,11,25,01,05,999.80
2018,11,25,01,06,999.83
2018,11,25,01,07,999.83
2018,11,25,01,08,999.80
2018,11,25,01,09,999.80
2018,11,25,01,10,999.80
2018,11,25,01,11,999.87
2018,11,25,01,12,999.83
2018,11,25,01,13,999.87
2018,11,25,01,14,999.83
2018,11,25,01,15,999.80
2018,11,25,01,16,999.83
2018,11,25,01,17,999.90
2018,11,25,01,18,999.93
2018,11,25,01,19,999.90
2018,11,25,01,20,999.87
2018,11,25,01,21,999.83
2018,11,25,01,22,999.90
2018,11,25,01,23,999.90
2018,11,25,01,24,999.90
2018,11,25,01,25,999.90
2018,11,25,01,26,999.87
2018,11,25,01,27,999.87
2018,11,25,01,28,999.87
2018,11,25,01,29,999.90
2018,11,25,01,30,999.90
2018,11,25,01,31,999.83
2018,11,25,01,32,999.80
2018,11,25,01,33,999.76
2018,11,25,01,34,999.73
2018,11,25,01,35,999.73
2018,11,25,01,36,999.73
2018,11,25,01,37,999.70
2018,11,25,01,38,999.73
2018,11,25,01,39,999.73
2018,11,25,01,40,999.76
2018,11,25,01,41,999.76
2018,11,25,01,42,999.76
2018,11,25,01,43,999.80
2018,11,25,01,44,999.80
2018,11,25,01,45,999.80
2018,11,25,01,46,999.80
2018,11,25,01,47,999.80
2018,11,25,01,48,999.87
2018,11,25,01,49,999.90
2018,11,25,01,50,999.87
2018,11,25,01,51,999.90
2018,11,25,01,52,999.90
2018,11,25,01,53,999.87
2018,11,25,01,54,999.83
2018,11,25,01,55,999.80
2018,11,25,01,56,999.80
2018,11,25,01,57,999.76
2018,11,25,01,58,999.80
2018,11,25,01,59,999.80
2018,11,25,02,00,999.76
2018,11,25,02,01,999.76
2018,11,25,02,02,999.73
2018,11,25,02,03,999.73
2018,11,25,02,04,999.76
2018,11,25,02,05,999.76
2018,11,25,02,06,999.76
2018,11,25,02,07,999.80
2018,11,25,02,08,999.80
2018,11,25,02,09,999.80
2018,11,25,02,10,999.80
2018,11,25,02,11,999.83
2018,11,25,02,12,999.83
2018,11,25,02,13,999.83
2018,11,25,02,14,999.87
2018,11,25,02,15,999.87
2018,11,25,02,16,999.90
2018,11,25,02,17,999.90
2018,11,25,02,18,999.87
2018,11,25,02,19,999.93
2018,11,25,02,20,999.93
2018,11,25,02,21,999.90
2018,11,25,02,22,999.83
2018,11,25,02,23,999.83
2018,11,25,02,24,999.83
2018,11,25,02,25,999.83
2018,11,25,02,26,999.83
2018,11,25,02,27,999.83
2018,11,25,02,28,999.80
2018,11,25,02,29,999.83
2018,11,25,02,30,999.83
2018,11,25,02,31,999.87
2018,11,25,02,32,999.87
2018,11,25,02,33,999.87
2018,11,25,02,34,999.87
2018,11,25,02,35,999.87
2018,11,25,02,36,999.87
2018,11,25,02,37,999.93
2018,11,25,02,38,999.87
2018,11,25,02,39,999.93
2018,11,25,02,40,999.90
2018,11,25,02,41,999.87
2018,11,25,02,42,999.83
2018,11,25,02,43,999.87
2018,11,25,02,44,999.87
2018,11,25,02,45,999.83
2018,11,25,02,46,999.80
2018,11,25,02,47,999.83
2018,11,25,02,48,999.76
2018,11,25,02,49,999.76
2018,11,25,02,50,999.80
2018,11,25,02,51,999.80
2018,11,25,02,52,999.80
2018,11,25,02,53,999.80
2018,11,25,02,54,999.76
2018,11,25,02,55,999.73
2018,11,25,02,56,999.73
2018,11,25,02,57,999.76
2018,11,25,02,58,999.73
2018,11,25,02,59,999.70
2018,11,25,03,00,999.66
2018,11,25,03,01,999.66
2018,11,25,03,02,999.66
2018,11,25,03,03,999.66
2018,11,25,03,04,999.66
2018,11,25,03,05,999.70
2018,11,25,03,06,999.66
2018,11,25,03,07,999.70
2018,11,25,03,08,999.70
2018,11,25,03,09,999.70
2018,11,25,03,10,999.70
2018,11,25,03,11,999.73
2018,11,25,03,12,999.73
2018,11,25,03,13,999.66
2018,11,25,03,14,999.70
2018,11,25,03,15,999.66
2018,11,25,03,16,999.63
2018,11,25,03,17,999.66
2018,11,25,03,18,999.63
2018,11,25,03,19,999.63
2018,11,25,03,20,999.59
2018,11,25,03,21,999.53
2018,11,25,03,22,999.53
2018,11,25,03,23,999.49
2018,11,25,03,24,999.49
2018,11,25,03,25,999.49
2018,11,25,03,26,999.49
2018,11,25,03,27,999.53
2018,11,25,03,28,999.49
2018,11,25,03,29,999.49
2018,11,25,03,30,999.39
2018,11,25,03,31,999.43
2018,11,25,03,32,999.46
2018,11,25,03,33,999.43
2018,11,25,03,34,999.39
2018,11,25,03,35,999.36
2018,11,25,03,36,999.36
2018,11,25,03,37,999.29
2018,11,25,03,38,999.29
2018,11,25,03,39,999.26
2018,11,25,03,40,999.29
2018,11,25,03,41,999.29
2018,11,25,03,42,999.29
2018,11,25,03,43,999.26
2018,11,25,03,44,999.26
2018,11,25,03,45,999.26
2018,11,25,03,46,999.19
2018,11,25,03,47,999.15
2018,11,25,03,48,999.19
2018,11,25,03,49,999.19
2018,11,25,03,50,999.19
2018,11,25,03,51,999.15
2018,11,25,03,52,999.15
2018,11,25,03,53,999.15
2018,11,25,03,54,999.15
2018,11,25,03,55,999.15
2018,11,25,03,56,999.22
2018,11,25,03,57,999.22
2018,11,25,03,58,999.26
2018,11,25,03,59,999.22
2018,11,25,04,00,999.26
2018,11,25,04,01,999.22
2018,11,25,04,02,999.22
2018,11,25,04,03,999.19
2018,11,25,04,04,999.22
2018,11,25,04,05,999.19
2018,11,25,04,06,999.19
2018,11,25,04,07,999.22
2018,11,25,04,08,999.19
2018,11,25,04,09,999.19
2018,11,25,04,10,999.15
2018,11,25,04,11,999.09
2018,11,25,04,12,999.19
2018,11,25,04,13,999.09
2018,11,25,04,14,999.09
2018,11,25,04,15,999.05
2018,11,25,04,16,999.09
2018,11,25,04,17,999.05
2018,11,25,04,18,999.05
2018,11,25,04,19,999.05
2018,11,25,04,20,999.02
2018,11,25,04,21,999.05
2018,11,25,04,22,999.02
2018,11,25,04,23,999.02
2018,11,25,04,24,999.02
2018,11,25,04,25,999.02
2018,11,25,04,26,998.95
2018,11,25,04,27,998.92
2018,11,25,04,28,998.95
2018,11,25,04,29,998.99
2018,11,25,04,30,998.95
2018,11,25,04,31,998.92
2018,11,25,04,32,998.95
2018,11,25,04,33,998.99
2018,11,25,04,34,998.99
2018,11,25,04,35,998.99
2018,11,25,04,36,998.99
2018,11,25,04,37,999.02
2018,11,25,04,38,998.99
2018,11,25,04,39,998.99
2018,11,25,04,40,999.02
2018,11,25,04,41,998.99
2018,11,25,04,42,998.92
2018,11,25,04,43,998.95
2018,11,25,04,44,998.88
2018,11,25,04,45,998.88
2018,11,25,04,46,998.85
2018,11,25,04,47,998.95
2018,11,25,04,48,998.92
2018,11,25,04,49,998.85
2018,11,25,04,50,998.88
2018,11,25,04,51,998.92
2018,11,25,04,52,998.88
2018,11,25,04,53,998.85
2018,11,25,04,54,998.88
2018,11,25,04,55,998.88
2018,11,25,04,56,998.88
2018,11,25,04,57,998.92
2018,11,25,04,58,998.88
2018,11,25,04,59,998.88
2018,11,25,05,00,998.88
2018,11,25,05,01,998.88
2018,11,25,05,02,998.88
2018,11,25,05,03,998.92
2018,11,25,05,04,998.92
2018,11,25,05,05,998.92
2018,11,25,05,06,998.88
2018,11,25,05,07,998.88
2018,11,25,05,08,998.88
2018,11,25,05,09,998.88
2018,11,25,05,10,998.82
2018,11,25,05,11,998.82
2018,11,25,05,12,998.75
2018,11,25,05,13,998.78
2018,11,25,05,14,998.75
2018,11,25,05,15,998.78
2018,11,25,05,16,998.85
2018,11,25,05,17,998.82
2018,11,25,05,18,998.82
2018,11,25,05,19,998.82
2018,11,25,05,20,998.82
2018,11,25,05,21,998.88
2018,11,25,05,22,998.85
2018,11,25,05,23,998.92
2018,11,25,05,24,998.92
2018,11,25,05,25,998.92
2018,11,25,05,26,998.92
2018,11,25,05,27,998.92
2018,11,25,05,28,998.95
2018,11,25,05,29,998.95
2018,11,25,05,30,998.92
2018,11,25,05,31,998.92
2018,11,25,05,32,998.92
2018,11,25,05,33,998.88
2018,11,25,05,34,998.88
2018,11,25,05,35,998.88
2018,11,25,05,36,998.92
2018,11,25,05,37,998.88
2018,11,25,05,38,998.92
2018,11,25,05,39,998.92
2018,11,25,05,40,998.92
2018,11,25,05,41,998.88
2018,11,25,05,42,998.85
2018,11,25,05,43,998.85
2018,11,25,05,44,998.78
2018,11,25,05,45,998.85
2018,11,25,05,46,998.82
2018,11,25,05,47,998.85
2018,11,25,05,48,998.82
2018,11,25,05,49,998.82
2018,11,25,05,50,998.85
2018,11,25,05,51,998.85
2018,11,25,05,52,998.84
2018,11,25,05,53,998.71
2018,11,25,05,54,998.71
2018,11,25,05,55,998.71
2018,11,25,05,56,998.75
2018,11,25,05,57,998.68
2018,11,25,05,58,998.68
2018,11,25,05,59,998.61
2018,11,25,06,00,998.54
2018,11,25,06,01,998.58
2018,11,25,06,02,998.58
2018,11,25,06,03,998.54
2018,11,25,06,04,998.54
2018,11,25,06,05,998.58
2018,11,25,06,06,998.51
2018,11,25,06,07,998.51
2018,11,25,06,08,998.51
2018,11,25,06,09,998.54
2018,11,25,06,10,998.58
2018,11,25,06,11,998.51
2018,11,25,06,12,998.54
2018,11,25,06,13,998.54
2018,11,25,06,14,998.61
2018,11,25,06,15,998.61
2018,11,25,06,16,998.61
2018,11,25,06,17,998.58
2018,11,25,06,18,998.54
2018,11,25,06,19,998.61
2018,11,25,06,20,998.54
2018,11,25,06,21,998.58
2018,11,25,06,22,998.58
2018,11,25,06,23,998.61
2018,11,25,06,24,998.61
2018,11,25,06,25,998.61
2018,11,25,06,26,998.61
2018,11,25,06,27,998.65
2018,11,25,06,28,998.68
2018,11,25,06,29,998.71
2018,11,25,06,30,998.75
2018,11,25,06,31,998.71
2018,11,25,06,32,998.68
2018,11,25,06,33,998.61
2018,11,25,06,34,998.61
2018,11,25,06,35,998.68
2018,11,25,06,36,998.68
2018,11,25,06,37,998.68
2018,11,25,06,38,998.75
2018,11,25,06,39,998.71
2018,11,25,06,40,998.75
2018,11,25,06,41,998.75
2018,11,25,06,42,998.78
2018,11,25,06,43,998.82
2018,11,25,06,44,998.85
2018,11,25,06,45,998.82
2018,11,25,06,46,998.85
2018,11,25,06,47,998.78
2018,11,25,06,48,998.75
2018,11,25,06,49,998.75
2018,11,25,06,50,998.71
2018,11,25,06,51,998.82
2018,11,25,06,52,998.82
2018,11,25,06,53,998.85
2018,11,25,06,54,998.88
2018,11,25,06,55,998.95
2018,11,25,06,56,998.95
2018,11,25,06,57,998.99
2018,11,25,06,58,998.99
2018,11,25,06,59,998.99
2018,11,25,07,00,998.99
2018,11,25,07,01,998.95
2018,11,25,07,02,998.92
2018,11,25,07,03,998.92
2018,11,25,07,04,998.95
2018,11,25,07,05,998.92
2018,11,25,07,06,998.88
2018,11,25,07,07,998.85
2018,11,25,07,08,998.88
2018,11,25,07,09,998.82
2018,11,25,07,10,998.85
2018,11,25,07,11,998.78
2018,11,25,07,12,998.75
2018,11,25,07,13,998.75
2018,11,25,07,14,998.68
2018,11,25,07,15,998.68
2018,11,25,07,16,998.71
2018,11,25,07,17,998.68
2018,11,25,07,18,998.65
2018,11,25,07,19,998.61
2018,11,25,07,20,998.65
2018,11,25,07,21,998.68
2018,11,25,07,22,998.65
2018,11,25,07,23,998.68
2018,11,25,07,24,998.68
2018,11,25,07,25,998.65
2018,11,25,07,26,998.68
2018,11,25,07,27,998.75
2018,11,25,07,28,998.71
2018,11,25,07,29,998.75
2018,11,25,07,30,998.75
2018,11,25,07,31,998.75
2018,11,25,07,32,998.75
2018,11,25,07,33,998.75
2018,11,25,07,34,998.78
2018,11,25,07,35,998.75
2018,11,25,07,36,998.78
2018,11,25,07,37,998.68
2018,11,25,07,38,998.65
2018,11,25,07,39,998.65
2018,11,25,07,40,998.65
2018,11,25,07,41,998.65
2018,11,25,07,42,998.65
2018,11,25,07,43,998.65
2018,11,25,07,44,998.54
2018,11,25,07,45,998.58
2018,11,25,07,46,998.61
2018,11,25,07,47,998.61
2018,11,25,07,48,998.58
2018,11,25,07,49,998.65
2018,11,25,07,50,998.68
2018,11,25,07,51,998.65
2018,11,25,07,52,998.61
2018,11,25,07,53,998.58
2018,11,25,07,54,998.61
2018,11,25,07,55,998.65
2018,11,25,07,56,998.71
2018,11,25,07,57,998.71
2018,11,25,07,58,998.71
2018,11,25,07,59,998.65
2018,11,25,08,00,998.65
2018,11,25,08,01,998.71
2018,11,25,08,02,998.68
2018,11,25,08,03,998.71
2018,11,25,08,04,998.68
2018,11,25,08,05,998.68
2018,11,25,08,06,998.71
2018,11,25,08,07,998.71
2018,11,25,08,08,998.71
2018,11,25,08,09,998.75
2018,11,25,08,10,998.75
2018,11,25,08,11,998.75
2018,11,25,08,12,998.71
2018,11,25,08,13,998.75
2018,11,25,08,14,998.78
2018,11,25,08,15,998.78
2018,11,25,08,16,998.85
2018,11,25,08,17,998.82
2018,11,25,08,18,998.82
2018,11,25,08,19,998.75
2018,11,25,08,20,998.75
2018,11,25,08,21,998.75
2018,11,25,08,22,998.71
2018,11,25,08,23,998.71
2018,11,25,08,24,998.75
2018,11,25,08,25,998.68
2018,11,25,08,26,998.71
2018,11,25,08,27,998.78
2018,11,25,08,28,998.82
2018,11,25,08,29,998.78
2018,11,25,08,30,998.78
2018,11,25,08,31,998.75
2018,11,25,08,32,998.78
2018,11,25,08,33,998.82
2018,11,25,08,34,998.85
2018,11,25,08,35,998.82
2018,11,25,08,36,998.88
2018,11,25,08,37,998.88
2018,11,25,08,38,998.85
2018,11,25,08,39,998.82
2018,11,25,08,40,998.92
2018,11,25,08,41,998.92
2018,11,25,08,42,998.99
2018,11,25,08,43,998.99
2018,11,25,08,44,998.95
2018,11,25,08,45,999.02
2018,11,25,08,46,999.02
2018,11,25,08,47,998.99
2018,11,25,08,48,998.95
2018,11,25,08,49,998.92
2018,11,25,08,50,998.95
2018,11,25,08,51,998.95
2018,11,25,08,52,998.99
2018,11,25,08,53,998.99
2018,11,25,08,54,999.02
2018,11,25,08,55,999.02
2018,11,25,08,56,999.02
2018,11,25,08,57,999.05
2018,11,25,08,58,999.02
2018,11,25,08,59,999.05
2018,11,25,09,00,999.12
2018,11,25,09,01,999.12
2018,11,25,09,02,999.12
2018,11,25,09,03,999.05
2018,11,25,09,04,999.12
2018,11,25,09,05,999.12
2018,11,25,09,06,999.12
2018,11,25,09,07,999.12
2018,11,25,09,08,999.12
2018,11,25,09,09,999.02
2018,11,25,09,10,999.05
2018,11,25,09,11,999.09
2018,11,25,09,12,999.12
2018,11,25,09,13,999.15
2018,11,25,09,14,999.12
2018,11,25,09,15,999.15
2018,11,25,09,16,999.19
2018,11,25,09,17,999.22
2018,11,25,09,18,999.19
2018,11,25,09,19,999.19
2018,11,25,09,20,999.22
2018,11,25,09,21,999.19
2018,11,25,09,22,999.19
2018,11,25,09,23,999.22
2018,11,25,09,24,999.22
2018,11,25,09,25,999.22
2018,11,25,09,26,999.29
2018,11,25,09,27,999.29
2018,11,25,09,28,999.29
2018,11,25,09,29,999.29
2018,11,25,09,30,999.29
2018,11,25,09,31,999.26
2018,11,25,09,32,999.29
2018,11,25,09,33,999.32
2018,11,25,09,34,999.29
2018,11,25,09,35,999.29
2018,11,25,09,36,999.26
2018,11,25,09,37,999.29
2018,11,25,09,38,999.26
2018,11,25,09,39,999.26
2018,11,25,09,40,999.32
2018,11,25,09,41,999.29
2018,11,25,09,42,999.26
2018,11,25,09,43,999.29
2018,11,25,09,44,999.36
2018,11,25,09,45,999.39
2018,11,25,09,46,999.39
2018,11,25,09,47,999.39
2018,11,25,09,48,999.43
2018,11,25,09,49,999.43
2018,11,25,09,50,999.39
2018,11,25,09,51,999.43
2018,11,25,09,52,999.43
2018,11,25,09,53,999.43
2018,11,25,09,54,999.39
2018,11,25,09,55,999.43
2018,11,25,09,56,999.39
2018,11,25,09,57,999.43
2018,11,25,09,58,999.46
2018,11,25,09,59,999.46
2018,11,25,10,00,999.53
2018,11,25,10,01,999.46
2018,11,25,10,02,999.46
2018,11,25,10,03,999.49
2018,11,25,10,04,999.43
2018,11,25,10,05,999.43
2018,11,25,10,06,999.46
2018,11,25,10,07,999.53
2018,11,25,10,08,999.49
2018,11,25,10,09,999.46
2018,11,25,10,10,999.46
2018,11,25,10,11,999.46
2018,11,25,10,12,999.49
2018,11,25,10,13,999.49
2018,11,25,10,14,999.49
2018,11,25,10,15,999.46
2018,11,25,10,16,999.46
2018,11,25,10,17,999.46
2018,11,25,10,18,999.46
2018,11,25,10,19,999.49
2018,11,25,10,20,999.46
2018,11,25,10,21,999.46
2018,11,25,10,22,999.49
2018,11,25,10,23,999.53
2018,11,25,10,24,999.56
2018,11,25,10,25,999.56
2018,11,25,10,26,999.56
2018,11,25,10,27,999.59
2018,11,25,10,28,999.63
2018,11,25,10,29,999.63
2018,11,25,10,30,999.66
2018,11,25,10,31,999.63
2018,11,25,10,32,999.66
2018,11,25,10,33,999.63
2018,11,25,10,34,999.73
2018,11,25,10,35,999.73
2018,11,25,10,36,999.70
2018,11,25,10,37,999.76
2018,11,25,10,38,999.73
2018,11,25,10,39,999.76
2018,11,25,10,40,999.80
2018,11,25,10,41,999.80
2018,11,25,10,42,999.76
2018,11,25,10,43,999.76
2018,11,25,10,44,999.76
2018,11,25,10,45,999.73
2018,11,25,10,46,999.73
2018,11,25,10,47,999.73
2018,11,25,10,48,999.76
2018,11,25,10,49,999.76
2018,11,25,10,50,999.76
2018,11,25,10,51,999.76
2018,11,25,10,52,999.80
2018,11,25,10,53,999.80
2018,11,25,10,54,999.76
2018,11,25,10,55,999.80
2018,11,25,10,56,999.80
2018,11,25,10,57,999.80
2018,11,25,10,58,999.87
2018,11,25,10,59,999.80
2018,11,25,11,00,999.76
2018,11,25,11,01,999.73
2018,11,25,11,02,999.66
2018,11,25,11,03,999.63
2018,11,25,11,04,999.63
2018,11,25,11,05,999.66
2018,11,25,11,06,999.63
2018,11,25,11,07,999.66
2018,11,25,11,08,999.66
2018,11,25,11,09,999.70
2018,11,25,11,10,999.73
2018,11,25,11,11,999.76
2018,11,25,11,12,999.70
2018,11,25,11,13,999.73
2018,11,25,11,14,999.76
2018,11,25,11,15,999.76
2018,11,25,11,16,999.80
2018,11,25,11,17,999.83
2018,11,25,11,18,999.87
2018,11,25,11,19,999.93
2018,11,25,11,20,999.90
2018,11,25,11,21,999.90
2018,11,25,11,22,999.90
2018,11,25,11,23,999.90
2018,11,25,11,24,999.93
2018,11,25,11,25,999.93
2018,11,25,11,26,999.90
2018,11,25,11,27,999.87
2018,11,25,11,28,999.87
2018,11,25,11,29,999.87
2018,11,25,11,30,999.87
2018,11,25,11,31,999.87
2018,11,25,11,32,999.90
2018,11,25,11,33,999.90
2018,11,25,11,34,999.90
2018,11,25,11,35,999.90
2018,11,25,11,36,999.87
2018,11,25,11,37,999.90
2018,11,25,11,38,999.93
2018,11,25,11,39,999.90
2018,11,25,11,40,999.97
2018,11,25,11,41,999.93
2018,11,25,11,42,999.93
2018,11,25,11,43,999.90
2018,11,25,11,44,999.87
2018,11,25,11,45,999.87
2018,11,25,11,46,999.90
2018,11,25,11,47,999.90
2018,11,25,11,48,999.90
2018,11,25,11,49,999.87
2018,11,25,11,50,999.83
2018,11,25,11,51,999.87
2018,11,25,11,52,999.80
2018,11,25,11,53,999.87
2018,11,25,11,54,999.93
2018,11,25,11,55,999.93
2018,11,25,11,56,999.93
2018,11,25,11,57,999.93
2018,11,25,11,58,999.93
2018,11,25,11,59,1000.00
2018,11,25,12,00,999.97
2018,11,25,12,01,999.97
2018,11,25,12,02,999.97
2018,11,25,12,03,999.97
2018,11,25,12,04,1000.00
2018,11,25,12,05,1000.03
2018,11,25,12,06,1000.00
2018,11,25,12,07,999.97
2018,11,25,12,08,1000.00
2018,11,25,12,09,1000.00
2018,11,25,12,10,1000.03
2018,11,25,12,11,1000.00
2018,11,25,12,12,1000.00
2018,11,25,12,13,1000.00
2018,11,25,12,14,999.97
2018,11,25,12,15,999.93
2018,11,25,12,16,999.93
2018,11,25,12,17,999.90
2018,11,25,12,18,999.83
2018,11,25,12,19,999.83
2018,11,25,12,20,999.87
2018,11,25,12,21,999.76
2018,11,25,12,22,999.83
2018,11,25,12,23,999.80
2018,11,25,12,24,999.80
2018,11,25,12,25,999.80
2018,11,25,12,26,999.83
2018,11,25,12,27,999.80
2018,11,25,12,28,999.76
2018,11,25,12,29,999.90
2018,11,25,12,30,999.87
2018,11,25,12,31,999.87
2018,11,25,12,32,999.87
2018,11,25,12,33,999.83
2018,11,25,12,34,999.90
2018,11,25,12,35,999.87
2018,11,25,12,36,999.87
2018,11,25,12,37,999.90
2018,11,25,12,38,999.93
2018,11,25,12,39,999.97
2018,11,25,12,40,1000.00
2018,11,25,12,41,999.97
2018,11,25,12,42,999.93
2018,11,25,12,43,999.93
2018,11,25,12,44,999.97
2018,11,25,12,45,1000.00
2018,11,25,12,46,1000.03
2018,11,25,12,47,1000.07
2018,11,25,12,48,1000.07
2018,11,25,12,49,1000.10
2018,11,25,12,50,1000.03
2018,11,25,12,51,1000.07
2018,11,25,12,52,1000.10
2018,11,25,12,53,1000.10
2018,11,25,12,54,1000.10
2018,11,25,12,55,1000.10
2018,11,25,12,56,1000.10
2018,11,25,12,57,1000.10
2018,11,25,12,58,1000.07
2018,11,25,12,59,1000.03
2018,11,25,13,00,1000.03
2018,11,25,13,01,1000.03
2018,11,25,13,02,1000.07
2018,11,25,13,03,1000.07
2018,11,25,13,04,1000.10
2018,11,25,13,05,1000.14
2018,11,25,13,06,1000.10
2018,11,25,13,07,1000.07
2018,11,25,13,08,1000.07
2018,11,25,13,09,1000.07
2018,11,25,13,10,1000.10
2018,11,25,13,11,1000.10
2018,11,25,13,12,1000.17
2018,11,25,13,13,1000.17
2018,11,25,13,14,1000.17
2018,11,25,13,15,1000.17
2018,11,25,13,16,1000.14
2018,11,25,13,17,1000.17
2018,11,25,13,18,1000.20
2018,11,25,13,19,1000.17
2018,11,25,13,20,1000.20
2018,11,25,13,21,1000.27
2018,11,25,13,22,1000.24
2018,11,25,13,23,1000.17
2018,11,25,13,24,1000.17
2018,11,25,13,25,1000.14
2018,11,25,13,26,1000.17
2018,11,25,13,27,1000.07
2018,11,25,13,28,1000.10
2018,11,25,13,29,1000.03
2018,11,25,13,30,1000.07
2018,11,25,13,31,1000.03
2018,11,25,13,32,1000.07
2018,11,25,13,33,1000.03
2018,11,25,13,34,999.97
2018,11,25,13,35,1000.00
2018,11,25,13,36,1000.03
2018,11,25,13,37,1000.07
2018,11,25,13,38,1000.07
2018,11,25,13,39,1000.03
2018,11,25,13,40,1000.07
2018,11,25,13,41,1000.10
2018,11,25,13,42,1000.14
2018,11,25,13,43,1000.14
2018,11,25,13,44,1000.17
2018,11,25,13,45,1000.20
2018,11,25,13,46,1000.27
2018,11,25,13,47,1000.27
2018,11,25,13,48,1000.14
2018,11,25,13,49,1000.14
2018,11,25,13,50,1000.14
2018,11,25,13,51,1000.10
2018,11,25,13,52,1000.10
2018,11,25,13,53,1000.07
2018,11,25,13,54,1000.03
2018,11,25,13,55,1000.00
2018,11,25,13,56,999.90
2018,11,25,13,57,999.87
2018,11,25,13,58,999.90
2018,11,25,13,59,999.83
2018,11,25,14,00,999.87
2018,11,25,14,01,999.80
2018,11,25,14,02,999.87
2018,11,25,14,03,999.90
2018,11,25,14,04,999.83
2018,11,25,14,05,999.83
2018,11,25,14,06,999.83
2018,11,25,14,07,999.80
2018,11,25,14,08,999.73
2018,11,25,14,09,999.76
2018,11,25,14,10,999.80
2018,11,25,14,11,999.80
2018,11,25,14,12,999.80
2018,11,25,14,13,999.87
2018,11,25,14,14,999.80
2018,11,25,14,15,999.83
2018,11,25,14,16,999.76
2018,11,25,14,17,999.80
2018,11,25,14,18,999.83
2018,11,25,14,19,999.87
2018,11,25,14,20,999.90
2018,11,25,14,21,999.90
2018,11,25,14,22,999.93
2018,11,25,14,23,999.97
2018,11,25,14,24,999.93
2018,11,25,14,25,999.93
2018,11,25,14,26,999.90
2018,11,25,14,27,999.90
2018,11,25,14,28,999.90
2018,11,25,14,29,999.93
2018,11,25,14,30,999.90
2018,11,25,14,31,999.93
2018,11,25,14,32,999.90
2018,11,25,14,33,999.93
2018,11,25,14,34,999.93
2018,11,25,14,35,1000.00
2018,11,25,14,36,1000.00
2018,11,25,14,37,1000.00
2018,11,25,14,38,1000.00
2018,11,25,14,39,1000.00
2018,11,25,14,40,1000.00
2018,11,25,14,41,1000.00
2018,11,25,14,42,999.93
2018,11,25,14,43,999.93
2018,11,25,14,44,999.97
2018,11,25,14,45,999.97
2018,11,25,14,46,1000.03
2018,11,25,14,47,1000.03
2018,11,25,14,48,1000.03
2018,11,25,14,49,999.97
2018,11,25,14,50,999.93
2018,11,25,14,51,999.90
2018,11,25,14,52,999.90
2018,11,25,14,53,999.83
2018,11,25,14,54,999.87
2018,11,25,14,55,999.83
2018,11,25,14,56,999.76
2018,11,25,14,57,999.80
2018,11,25,14,58,999.73
2018,11,25,14,59,999.70
2018,11,25,15,00,999.70
2018,11,25,15,01,999.70
2018,11,25,15,02,999.70
2018,11,25,15,03,999.73
2018,11,25,15,04,999.70
2018,11,25,15,05,999.73
2018,11,25,15,06,999.76
2018,11,25,15,07,999.83
2018,11,25,15,08,999.87
2018,11,25,15,09,999.83
2018,11,25,15,10,999.83
2018,11,25,15,11,999.90
2018,11,25,15,12,999.87
2018,11,25,15,13,999.87
2018,11,25,15,14,999.87
2018,11,25,15,15,999.90
2018,11,25,15,16,999.87
2018,11,25,15,17,999.87
2018,11,25,15,18,999.87
2018,11,25,15,19,999.83
2018,11,25,15,20,999.83
2018,11,25,15,21,999.87
2018,11,25,15,22,999.83
2018,11,25,15,23,999.76
2018,11,25,15,24,999.73
2018,11,25,15,25,999.66
2018,11,25,15,26,999.76
2018,11,25,15,27,999.73
2018,11,25,15,28,999.70
2018,11,25,15,29,999.63
2018,11,25,15,30,999.70
2018,11,25,15,31,999.66
2018,11,25,15,32,999.73
2018,11,25,15,33,999.73
2018,11,25,15,34,999.76
2018,11,25,15,35,999.76
2018,11,25,15,36,999.70
2018,11,25,15,37,999.66
2018,11,25,15,38,999.63
2018,11,25,15,39,999.63
2018,11,25,15,40,999.70
2018,11,25,15,41,999.63
2018,11,25,15,42,999.66
2018,11,25,15,43,999.66
2018,11,25,15,44,999.66
2018,11,25,15,45,999.66
2018,11,25,15,46,999.66
2018,11,25,15,47,999.63
2018,11,25,15,48,999.59
2018,11,25,15,49,999.66
2018,11,25,15,50,999.63
2018,11,25,15,51,999.66
2018,11,25,15,52,999.63
2018,11,25,15,53,999.66
2018,11,25,15,54,999.59
2018,11,25,15,55,999.56
2018,11,25,15,56,999.56
2018,11,25,15,57,999.56
2018,11,25,15,58,999.56
2018,11,25,15,59,999.56
2018,11,25,16,00,999.53
2018,11,25,16,01,999.53
2018,11,25,16,02,999.53
2018,11,25,16,03,999.49
2018,11,25,16,04,999.46
2018,11,25,16,05,999.46
2018,11,25,16,06,999.46
2018,11,25,16,07,999.43
2018,11,25,16,08,999.43
2018,11,25,16,09,999.39
2018,11,25,16,10,999.39
2018,11,25,16,11,999.32
2018,11,25,16,12,999.32
2018,11,25,16,13,999.36
2018,11,25,16,14,999.36
2018,11,25,16,15,999.36
2018,11,25,16,16,999.32
2018,11,25,16,17,999.36
2018,11,25,16,18,999.29
2018,11,25,16,19,999.29
2018,11,25,16,20,999.26
2018,11,25,16,21,999.32
2018,11,25,16,22,999.32
2018,11,25,16,23,999.32
2018,11,25,16,24,999.26
2018,11,25,16,25,999.29
2018,11,25,16,26,999.29
2018,11,25,16,27,999.32
2018,11,25,16,28,999.36
2018,11,25,16,29,999.32
2018,11,25,16,30,999.29